W8APS Weather Reports


time (UTC)temp
F
wind
direction
speed
knots
gust
knots
rain 1hr
in
rain 24hr
in
rain mn
in
humidity
%
barometer
mb
20260831201537 74 122 3.5 8.7 0.00 0.08 0.08 88 1016.4
20260831201016 74 171 2.6 8.7 0.00 0.08 0.08 88 1016.4
20260831200516 73 175 2.6 8.7 0.00 0.08 0.08 88 1016.4
20260831200042 73 212 3.5 8.7 0.00 0.08 0.08 88 1016.6
20260831195521 73 207 3.5 8.7 0.00 0.08 0.08 88 1016.7
20260831195019 73 46 3.5 7.8 0.00 0.08 0.08 88 1016.8
20260831194540 73 149 2.6 7.8 0.01 0.08 0.08 88 1016.8
20260831194021 73 91 2.6 7.8 0.01 0.08 0.08 89 1016.9
20260831193519 73 102 2.6 7.0 0.01 0.08 0.08 90 1017.0
20260831193037 72 126 4.3 7.0 0.01 0.08 0.08 91 1017.1
20260831192520 72 77 1.7 6.1 0.01 0.08 0.08 91 1017.4
20260831192021 72 106 1.7 6.1 0.01 0.08 0.08 91 1017.5
20260831191539 72 0 0.0 2.6 0.02 0.08 0.08 91 1017.7
20260831191016 72 115 0.0 4.3 0.02 0.08 0.08 92 1017.7
20260831190518 72 75 0.9 4.3 0.02 0.08 0.08 91 1017.6
20260831190058 72 91 0.9 4.3 0.02 0.08 0.08 92 1017.4
20260831185522 72 72 0.9 4.3 0.02 0.08 0.08 91 1017.5
20260831185022 72 103 0.0 4.3 0.01 0.07 0.07 91 1017.7
20260831184536 72 73 1.7 4.3 0.01 0.07 0.07 91 1017.7
20260831184020 72 0 1.7 4.3 0.01 0.07 0.07 90 1017.7
20260831183520 73 99 0.0 6.1 0.01 0.07 0.07 91 1017.8
20260831183049 73 0 2.6 6.1 0.01 0.07 0.07 90 1018.0
20260831182522 73 29 1.7 4.3 0.01 0.07 0.07 88 1018.0
20260831182020 73 5 0.0 2.6 0.00 0.06 0.06 87 1017.7
20260831181538 73 98 1.7 3.5 0.00 0.06 0.06 86 1017.3
20260831181018 74 122 0.9 3.5 0.00 0.06 0.06 86 1017.1
20260831180519 74 0 0.9 5.2 0.00 0.06 0.06 87 1016.9
20260831180037 74 173 0.9 5.2 0.00 0.06 0.06 87 1016.8
20260831175527 74 161 1.7 5.2 0.00 0.06 0.06 86 1016.8
20260831175019 74 169 0.9 4.3 0.00 0.06 0.06 88 1016.8
20260831174535 73 185 1.7 4.3 0.00 0.06 0.06 88 1016.9
20260831174016 73 193 0.0 3.5 0.01 0.06 0.06 90 1017.0
20260831173517 73 136 1.7 3.5 0.01 0.06 0.06 90 1017.1
20260831173039 73 201 0.0 1.7 0.03 0.06 0.06 90 1017.3
20260831172517 73 0 0.0 1.7 0.03 0.06 0.06 91 1017.3
20260831172017 72 113 0.0 1.7 0.04 0.06 0.06 90 1017.2
20260831171538 72 0 0.0 1.7 0.05 0.06 0.06 92 1017.3
20260831171018 72 0 0.0 1.7 0.05 0.06 0.06 92 1017.4
20260831170518 72 0 0.0 0.9 0.06 0.06 0.06 92 1017.4
20260831170041 72 0 0.0 1.7 0.06 0.06 0.06 92 1017.4
20260831165518 71 0 0.0 1.7 0.06 0.18 0.06 91 1017.3
20260831165020 71 0 0.0 1.7 0.06 0.18 0.06 90 1017.3
20260831164537 72 0 0.0 1.7 0.06 0.18 0.06 89 1017.5
20260831164022 72 0 0.0 0.9 0.05 0.17 0.05 87 1017.7
20260831163519 73 0 0.0 2.6 0.04 0.16 0.04 86 1018.1
20260831163042 73 0 0.0 2.6 0.03 0.15 0.03 84 1018.4
20260831162517 73 0 0.9 7.0 0.02 0.14 0.02 83 1018.8
20260831162016 74 266 2.6 7.0 0.01 0.13 0.01 82 1019.1
20260831161538 75 278 1.7 6.1 0.01 0.13 0.01 80 1019.3
20260831161017 75 267 2.6 7.0 0.01 0.13 0.01 79 1019.2
20260831160517 76 266 1.7 7.0 0.00 0.12 0.00 78 1019.1
20260831160043 76 0 1.7 6.1 0.00 0.12 0.00 78 1019.2
20260831155521 76 260 2.6 6.1 0.00 0.22 0.00 77 1019.1
20260831155021 76 266 0.9 5.2 0.00 0.22 0.00 77 1018.9
20260831154617 76 0 1.7 5.2 0.00 0.22 0.00 77 1018.7
20260831154017 76 206 0.9 3.5 0.00 0.22 0.00 77 1018.7
20260831153518 76 257 0.9 3.5 0.00 0.22 0.00 77 1018.4
20260831153037 76 239 0.9 3.5 0.00 0.22 0.00 78 1018.4
20260831152519 76 210 0.0 3.5 0.00 0.22 0.00 78 1018.4
20260831152017 76 233 0.0 3.5 0.00 0.22 0.00 79 1018.4
20260831151538 75 236 0.9 3.5 0.00 0.22 0.00 81 1018.4
20260831151018 75 223 0.0 3.5 0.00 0.22 0.00 81 1018.3
20260831150521 75 227 0.0 4.3 0.00 0.22 0.00 82 1018.2
20260831150035 75 228 0.0 5.2 0.00 0.22 0.00 82 1018.1
20260831145520 74 0 0.9 5.2 0.00 0.33 0.00 82 1018.0
20260831145020 74 241 0.9 3.5 0.00 0.33 0.00 83 1018.0
20260831144539 74 0 0.9 3.5 0.00 0.33 0.00 83 1017.9
20260831144018 74 0 1.7 3.5 0.00 0.33 0.00 84 1017.7
20260831143517 74 238 0.0 3.5 0.00 0.33 0.00 84 1017.5
20260831143035 74 0 0.9 3.5 0.00 0.33 0.00 84 1017.5
20260831142517 73 0 0.9 3.5 0.00 0.33 0.00 85 1017.5
20260831142018 73 0 0.0 2.6 0.00 0.33 0.00 86 1017.6
20260831141536 73 240 0.0 2.6 0.00 0.33 0.00 86 1017.7
20260831141017 73 245 0.0 3.5 0.00 0.33 0.00 87 1017.7
20260831140516 73 0 0.9 3.5 0.00 0.33 0.00 86 1017.7
20260831140041 73 165 0.0 1.7 0.00 0.33 0.00 87 1017.6
20260831135517 72 233 0.0 1.7 0.00 0.55 0.00 87 1017.6
20260831135018 72 164 0.0 1.7 0.00 0.55 0.00 88 1017.6
20260831134533 72 0 0.0 1.7 0.00 0.55 0.00 87 1017.6
20260831134015 72 0 0.0 2.6 0.00 0.55 0.00 88 1017.6
20260831133517 72 0 0.0 2.6 0.00 0.55 0.00 88 1017.4
20260831133037 71 162 0.0 0.9 0.00 0.55 0.00 89 1017.5
20260831132517 71 0 0.0 0.0 0.00 0.55 0.00 89 1017.5
20260831132021 71 0 0.0 0.0 0.00 0.55 0.00 90 1017.6
20260831131542 71 0 0.0 1.7 0.00 0.55 0.00 90 1017.7
20260831131021 71 0 0.0 1.7 0.00 0.55 0.00 90 1017.5
20260831130520 71 0 0.0 1.7 0.00 0.55 0.00 90 1017.4
20260831130038 71 0 0.0 0.9 0.00 0.55 0.00 90 1017.3
20260831125517 70 202 0.0 1.7 0.00 0.68 0.00 91 1017.3
20260831125018 70 0 0.0 1.7 0.00 0.68 0.00 91 1017.2
20260831124545 70 0 0.0 0.0 0.00 0.68 0.00 92 1017.3
20260831124016 70 0 0.0 0.0 0.00 0.68 0.00 92 1017.2
20260831123515 70 0 0.0 0.0 0.00 0.68 0.00 92 1017.2
20260831123033 70 0 0.0 0.0 0.00 0.68 0.00 92 1017.3
20260831122518 70 0 0.0 0.0 0.00 0.68 0.00 92 1017.2
20260831122020 70 196 0.0 0.0 0.00 0.68 0.00 93 1017.3
20260831121538 70 0 0.0 0.0 0.00 0.68 0.00 93 1017.3
20260831121020 70 0 0.0 0.0 0.00 0.68 0.00 93 1017.2
20260831120519 69 0 0.0 0.0 0.00 0.68 0.00 93 1017.2
20260831120051 69 0 0.0 0.0 0.00 0.68 0.00 93 1017.3
20260831115519 69 0 0.0 0.0 0.00 0.71 0.00 93 1017.1
20260831115018 69 0 0.0 0.0 0.00 0.71 0.00 93 1017.2
20260831114537 69 0 0.0 0.0 0.00 0.71 0.00 93 1017.3
20260831114017 69 0 0.0 0.0 0.00 0.71 0.00 93 1017.2
20260831113516 69 0 0.0 0.0 0.00 0.71 0.00 93 1017.3
20260831113037 69 0 0.0 0.0 0.00 0.71 0.00 93 1017.3
20260831112515 69 0 0.0 0.0 0.00 0.71 0.00 93 1017.3
20260831112017 69 0 0.0 0.0 0.00 0.71 0.00 92 1017.4
20260831111534 69 0 0.0 0.0 0.00 0.71 0.00 92 1017.4
20260831111018 69 0 0.0 0.0 0.00 0.71 0.00 92 1017.3
20260831110520 69 0 0.0 0.0 0.00 0.71 0.00 92 1017.3
20260831110036 69 0 0.0 0.0 0.00 0.71 0.00 92 1017.6
20260831105517 69 0 0.0 0.0 0.00 0.71 0.00 92 1017.4
20260831105019 69 0 0.0 0.0 0.00 0.71 0.00 92 1017.3
20260831104538 69 0 0.0 0.0 0.00 0.71 0.00 92 1017.2
20260831104017 69 0 0.0 0.0 0.00 0.71 0.00 91 1017.2
20260831103517 69 0 0.0 0.0 0.00 0.71 0.00 92 1017.3
20260831103035 69 0 0.0 0.0 0.00 0.71 0.00 91 1017.2
20260831102516 69 0 0.0 0.0 0.00 0.71 0.00 92 1017.2
20260831102017 69 0 0.0 0.0 0.00 0.71 0.00 91 1017.1
20260831101536 69 0 0.0 0.0 0.00 0.71 0.00 91 1017.1
20260831101017 69 0 0.0 0.0 0.00 0.71 0.00 91 1017.1
20260831100522 69 0 0.0 0.0 0.00 0.71 0.00 91 1017.1
20260831100040 69 0 0.0 0.0 0.00 0.71 0.00 92 1017.0
20260831095517 69 0 0.0 0.0 0.00 0.74 0.00 92 1017.0
20260831095021 69 0 0.0 0.0 0.00 0.74 0.00 92 1017.1
20260831094544 69 0 0.0 0.0 0.00 0.74 0.00 92 1017.0
20260831094018 69 0 0.0 0.0 0.00 0.74 0.00 91 1017.0
20260831093518 69 0 0.0 0.0 0.00 0.74 0.00 91 1017.0
20260831093037 69 0 0.0 0.0 0.00 0.74 0.00 91 1017.0
20260831092520 69 0 0.0 0.0 0.00 0.74 0.00 91 1017.0
20260831092020 69 0 0.0 0.0 0.00 0.74 0.00 91 1017.1
20260831091545 69 0 0.0 0.0 0.00 0.74 0.00 91 1017.1
20260831091018 69 0 0.0 0.0 0.00 0.74 0.00 90 1017.1
20260831090517 69 0 0.0 0.9 0.00 0.74 0.00 90 1017.1
20260831090041 69 196 0.0 0.9 0.00 0.74 0.00 90 1017.2
20260831085521 69 0 0.0 0.9 0.00 0.78 0.00 91 1017.2
20260831085015 69 0 0.0 0.9 0.00 0.78 0.00 91 1017.1
20260831084535 69 196 0.0 0.9 0.00 0.78 0.00 91 1017.1
20260831084015 68 0 0.0 0.9 0.00 0.78 0.00 92 1017.1
20260831083516 68 0 0.0 0.0 0.00 0.78 0.00 92 1017.1
20260831083033 68 0 0.0 0.0 0.00 0.78 0.00 91 1017.0
20260831082517 68 0 0.0 0.9 0.00 0.78 0.00 92 1016.9
20260831082019 68 0 0.0 0.9 0.00 0.78 0.00 91 1016.8
20260831081539 68 0 0.0 0.0 0.00 0.78 0.00 92 1016.8
20260831081019 68 0 0.0 0.0 0.00 0.78 0.00 91 1016.9
20260831080521 69 0 0.0 0.0 0.00 0.78 0.00 92 1016.8
20260831080040 69 0 0.0 0.0 0.00 0.78 0.00 92 1016.8
20260831075519 69 0 0.0 0.0 0.00 0.81 0.00 91 1016.9
20260831075016 69 0 0.0 0.0 0.00 0.81 0.00 91 1017.0
20260831074536 69 0 0.0 0.0 0.00 0.81 0.00 91 1017.0
20260831074019 69 0 0.0 0.0 0.00 0.81 0.00 91 1017.0
20260831073518 69 0 0.0 0.0 0.00 0.81 0.00 90 1017.0
20260831073034 69 0 0.0 0.0 0.00 0.81 0.00 90 1017.0
20260831072521 69 0 0.0 0.9 0.00 0.81 0.00 90 1016.9
20260831072025 69 0 0.0 0.9 0.00 0.81 0.00 90 1017.0
20260831071544 69 0 0.0 1.7 0.00 0.81 0.00 89 1017.0
20260831071017 69 0 0.0 1.7 0.00 0.81 0.00 89 1017.1
20260831070521 70 196 0.0 1.7 0.00 0.81 0.00 89 1017.1
20260831070037 70 0 0.0 0.9 0.00 0.81 0.00 89 1017.2
20260831065518 70 0 0.0 1.7 0.00 0.81 0.00 89 1017.2
20260831065018 70 0 0.0 1.7 0.00 0.81 0.00 89 1017.2
20260831064535 70 0 0.0 1.7 0.00 0.81 0.00 89 1017.3
20260831064016 70 0 0.0 1.7 0.00 0.81 0.00 89 1017.3
20260831063518 70 202 0.0 1.7 0.00 0.81 0.00 89 1017.3
20260831063033 70 0 0.0 1.7 0.00 0.81 0.00 89 1017.4
20260831062524 70 0 0.0 1.7 0.00 0.81 0.00 88 1017.4
20260831062022 70 0 0.0 0.9 0.00 0.81 0.00 88 1017.3
20260831061539 70 0 0.0 0.9 0.00 0.81 0.00 88 1017.3
20260831061023 70 0 0.0 0.9 0.00 0.81 0.00 88 1017.3
20260831060519 70 0 0.0 0.9 0.00 0.81 0.00 88 1017.3
20260831060036 70 0 0.0 0.9 0.00 0.81 0.00 88 1017.4
20260831055516 70 0 0.0 1.7 0.00 0.81 0.00 88 1017.4
20260831055018 70 0 0.0 1.7 0.00 0.81 0.00 88 1017.4
20260831054535 70 233 0.0 2.6 0.00 0.81 0.00 87 1017.5
20260831054019 71 0 0.0 5.2 0.00 0.81 0.00 87 1017.4
20260831053516 71 0 0.0 7.0 0.00 0.81 0.00 87 1017.4
20260831053035 71 197 0.9 7.0 0.00 0.81 0.00 87 1017.5
20260831052518 71 0 0.0 3.5 0.00 0.81 0.00 87 1017.5
20260831052020 71 248 0.9 3.5 0.00 0.81 0.00 87 1017.6
20260831051551 71 221 0.0 4.3 0.00 0.81 0.00 87 1017.7
20260831051018 71 220 0.0 4.3 0.00 0.81 0.00 87 1017.6
20260831050517 71 0 0.0 3.5 0.00 0.81 0.00 88 1017.6
20260831050038 71 0 0.0 4.3 0.00 0.81 0.00 88 1017.7
20260831045519 71 142 0.0 4.3 0.00 0.82 0.00 88 1017.7
20260831045019 71 243 0.0 6.1 0.00 0.82 0.00 88 1017.7
20260831044536 71 221 1.7 6.1 0.00 0.82 0.00 88 1017.6
20260831044018 71 0 0.9 5.2 0.00 0.82 0.00 88 1017.7
20260831043518 71 245 0.9 5.2 0.00 0.82 0.00 88 1017.6
20260831043034 71 0 1.7 10.4 0.00 0.82 0.00 88 1017.6
20260831042522 71 246 2.6 11.3 0.00 0.82 0.00 88 1017.6
20260831042017 71 199 1.7 11.3 0.00 0.82 0.00 88 1017.5
20260831041537 71 129 0.9 6.1 0.00 0.82 0.00 88 1017.7
20260831041020 70 216 1.7 6.1 0.00 0.82 0.00 89 1017.7
20260831040519 70 0 1.7 7.0 0.00 0.82 0.00 89 1017.8
20260831040036 70 169 1.7 7.0 0.00 0.82 0.00 89 1017.8
20260831035523 70 174 0.0 4.3 0.00 0.82 0.82 90 1017.9
20260831035018 70 167 1.7 4.3 0.00 0.82 0.82 90 1017.9
20260831034545 69 200 0.9 3.5 0.00 0.82 0.82 90 1017.9
20260831034016 69 0 0.0 3.5 0.00 0.82 0.82 90 1017.9
20260831033517 69 214 1.7 3.5 0.00 0.82 0.82 90 1017.9
20260831033035 69 0 0.9 5.2 0.00 0.82 0.82 90 1017.9
20260831032516 69 0 1.7 5.2 0.00 0.82 0.82 90 1017.9
20260831032019 69 195 1.7 4.3 0.00 0.82 0.82 90 1017.9
20260831031536 69 167 0.0 2.6 0.00 0.82 0.82 90 1017.9
20260831031017 69 155 0.9 2.6 0.00 0.82 0.82 90 1017.9
20260831030517 69 0 0.9 4.3 0.00 0.82 0.82 90 1017.8
20260831030036 69 0 0.9 4.3 0.00 0.82 0.82 89 1017.8
20260831025517 69 171 0.9 4.3 0.00 0.82 0.82 89 1017.7
20260831025017 69 0 0.9 3.5 0.00 0.82 0.82 89 1017.7
20260831024536 69 171 1.7 4.3 0.00 0.82 0.82 89 1017.7
20260831024020 69 166 1.7 4.3 0.00 0.82 0.82 89 1017.7
20260831023518 69 203 1.7 4.3 0.00 0.82 0.82 89 1017.7
20260831023037 69 199 1.7 4.3 0.00 0.82 0.82 89 1017.6
20260831022517 69 191 2.6 4.3 0.00 0.82 0.82 89 1017.6
20260831022019 69 159 2.6 4.3 0.00 0.82 0.82 89 1017.6
20260831021539 69 202 0.0 4.3 0.00 0.82 0.82 88 1017.6
20260831021018 69 161 1.7 7.0 0.00 0.82 0.82 88 1017.6
20260831020518 69 203 1.7 7.0 0.00 0.82 0.82 88 1017.6
20260831020033 69 221 2.6 7.0 0.00 0.82 0.82 88 1017.4
20260831015517 69 157 3.5 6.1 0.00 0.82 0.82 88 1017.5
20260831015017 69 152 2.6 6.1 0.00 0.82 0.82 88 1017.5
20260831014534 69 176 1.7 5.2 0.00 0.82 0.82 89 1017.5
20260831014017 69 146 1.7 5.2 0.00 0.82 0.82 89 1017.4
20260831013517 69 168 2.6 7.0 0.00 0.82 0.82 89 1017.4
20260831013046 69 201 2.6 7.0 0.00 0.82 0.82 89 1017.5
20260831012524 69 181 2.6 6.1 0.00 0.82 0.82 89 1017.4
20260831012020 69 191 2.6 7.8 0.00 0.82 0.82 89 1017.5
20260831011544 69 162 2.6 7.8 0.00 0.82 0.82 89 1017.5
20260831011018 69 165 3.5 7.8 0.00 0.82 0.82 89 1017.4
20260831010518 70 127 2.6 7.0 0.00 0.82 0.82 90 1017.3
20260831010042 70 176 1.7 4.3 0.00 0.82 0.82 90 1017.2
20260831005516 70 146 1.7 6.1 0.00 0.82 0.82 90 1017.1
20260831005018 70 144 2.6 6.1 0.00 0.82 0.82 90 1017.1
20260831004536 70 207 1.7 5.2 0.00 0.82 0.82 90 1017.1
20260831004023 70 158 2.6 7.0 0.00 0.82 0.82 90 1017.1
20260831003520 70 162 2.6 7.0 0.00 0.82 0.82 90 1017.1
20260831003038 70 105 1.7 7.0 0.00 0.82 0.82 91 1017.2
20260831002519 70 167 1.7 7.0 0.00 0.82 0.82 91 1017.3
20260831002021 70 152 0.9 5.2 0.00 0.82 0.82 91 1017.3
20260831001533 70 202 0.9 5.2 0.00 0.82 0.82 91 1017.3
20260831001019 70 169 2.6 5.2 0.00 0.82 0.82 91 1017.2
20260831000517 70 196 1.7 7.0 0.00 0.82 0.82 91 1017.2
20260831000034 70 204 1.7 8.7 0.00 0.82 0.82 91 1017.1
20260830235517 70 159 2.6 8.7 0.00 0.82 0.82 91 1017.1
20260830235017 70 108 3.5 7.8 0.00 0.82 0.82 91 1017.0
20260830234541 70 197 2.6 7.8 0.00 0.82 0.82 90 1017.1
20260830234018 70 197 3.5 8.7 0.00 0.82 0.82 90 1017.2
20260830233520 70 150 3.5 8.7 0.00 0.82 0.82 90 1017.3
20260830233035 70 141 3.5 7.0 0.00 0.82 0.82 90 1017.3
20260830232518 70 122 3.5 7.8 0.00 0.82 0.82 90 1017.3
20260830232018 70 141 2.6 7.8 0.00 0.82 0.82 90 1017.2
20260830231534 70 143 3.5 7.8 0.00 0.82 0.82 90 1017.3
20260830231016 70 176 2.6 7.8 0.00 0.82 0.82 90 1017.3
20260830230517 70 166 1.7 7.0 0.00 0.82 0.82 90 1017.4
20260830230033 70 173 2.6 6.1 0.00 0.82 0.82 90 1017.6
20260830225519 70 176 1.7 5.2 0.00 0.82 0.82 90 1017.6
20260830225022 70 135 1.7 5.2 0.00 0.82 0.82 90 1017.8
20260830224535 70 139 0.9 5.2 0.00 0.82 0.82 91 1017.9
20260830224019 70 156 0.9 5.2 0.00 0.82 0.82 91 1017.9
20260830223519 70 133 0.9 3.5 0.00 0.82 0.82 91 1017.9
20260830223043 70 116 0.9 3.5 0.00 0.82 0.82 92 1017.9
20260830222518 70 0 0.0 3.5 0.00 0.82 0.82 92 1017.9
20260830222017 70 139 0.9 3.5 0.00 0.82 0.82 93 1018.0
20260830221544 70 117 0.9 3.5 0.00 0.82 0.82 94 1018.0
20260830221016 69 0 0.0 3.5 0.00 0.82 0.82 95 1018.1
20260830220516 69 0 1.7 4.3 0.00 0.82 0.82 95 1018.0
20260830220035 69 165 0.9 5.2 0.00 0.82 0.82 96 1017.9
20260830215522 69 221 1.7 6.1 0.00 0.82 0.82 97 1017.9
20260830215021 69 155 2.6 6.1 0.00 0.82 0.82 97 1017.9
20260830214538 69 174 3.5 6.1 0.00 0.82 0.82 97 1017.8
20260830214021 69 199 2.6 6.1 0.00 0.82 0.82 97 1017.8
20260830213516 69 162 0.9 3.5 0.00 0.82 0.82 97 1018.0
20260830213036 69 206 0.9 4.3 0.00 0.82 0.82 97 1017.9
20260830212516 68 167 1.7 4.3 0.00 0.82 0.82 97 1017.8
20260830212016 68 183 1.7 6.1 0.00 0.82 0.82 97 1017.7
20260830211536 68 161 2.6 6.1 0.00 0.82 0.82 97 1017.7
20260830211018 68 161 2.6 6.1 0.00 0.82 0.82 97 1017.6
20260830210516 68 184 1.7 4.3 0.00 0.82 0.82 97 1017.6
20260830210039 68 0 0.9 4.3 0.00 0.82 0.82 97 1017.5
20260830205518 68 168 0.9 6.1 0.00 0.82 0.82 97 1017.5
20260830205018 68 165 1.7 6.1 0.00 0.82 0.82 97 1017.4
20260830204534 68 210 1.7 6.1 0.00 0.82 0.82 97 1017.4
20260830204018 68 150 1.7 5.2 0.00 0.82 0.82 97 1017.4
20260830203518 68 193 0.9 4.3 0.00 0.82 0.82 97 1017.3
20260830203036 68 0 1.7 6.1 0.00 0.82 0.82 97 1017.4
20260830202516 68 134 1.7 6.1 0.00 0.82 0.82 97 1017.3
20260830202016 68 165 1.7 5.2 0.00 0.82 0.82 97 1017.3